Погода в Покровке

Погода в Покровке : погода сейчас, прогноз погоды и архив. Всё, что Вы хотите узнать о погоде в Покровке!

Поиск расширенной информации на нашем сайте:

Полезная информация: Марс, юпитер, венера, все это космос

Другие новости

Новости СМИ2

Главная страница сайта

Новости сайта

03.07.2017

Напоминаем, что на нашем специализированном сайте Метеоцентр.Азия вы можете получить высокодетализированные автоматические прогнозы погоды по пунктам России, СНГ и мира в авиационном формате (включающие направление и скорость ветра, видимость, явления погоды, количество и форму облачности, нижнюю и верхнюю границу облачности).

Рекомендуем: заказать музыкантов

Погода в Покровке - сегодня

Время (UTC), дата Ветер
(°,м/с) 
Видим.   Явления Облачность Т
(°С)
Тd
(°С)
f(%) Тe
(°С)
Pmin
(гПа)
dP
(гПа)
Po
(мм)
O2
(г/м3)
Тmin Tmax R s Состояние
почвы
18 20.06.18 180 (Ю) 20000 м  {ливн. осадки}  10/10 600 м кучево-дожд. 
[Cb cap]
+14.2 +13.6 96 +21  998.9  -0.2  746  283           
21 20.06.18 170 (Ю) 20000 м  слаб. ливневой дождь  10/10 600 м кучево-дожд. 
[Cb cap]
+14.4 +13.8 96 +22  999.5  0.6  747  283  +14.1      мокрая 
03 21.06.18 280 (З) 20000 м  слаб. ливневой дождь  10/10 600 м кучево-дожд. 
[Cb cap]
+19 +14.9 77 +29  999.2  -0.6  746  278           
06 21.06.18 340 (С) 20000 м  {ливн. осадки}  10/10 600 м кучево-дожд. 
[Cb cap]
+20.7 +12.6 60 +26  999.2  746  277           
12 21.06.18 190 (Ю) 20000 м    9/9 600 м 
[Sc diur, vesp]
+18.5 +13.9 75 +27  1000.6  1.4  747  279           
15 21.06.18 180 (Ю) 20000 м    8/5 600 м средняя 
[Sc diur, vesp|Ac trans]
+15.8 +12.6 81 +22  1001.6  748  282           
18 21.06.18 170 (Ю) 20000 м    6/0 средняя 
[Ac trans]
+13.7 +11.7 88 +18  1001.6  748  285           
00 22.06.18 220 (ЮЗ) 20000 м    8/8 600 м 
[Cu hum]
+21.4 +13.6 61 +28  1003  0.2  749  277           
03 22.06.18 250 (З) 20000 м    10/3 600 м средняя, верхняя 
[Cu hum|Ac trans|Ci fib]
+26 +14.2 48 +33  1002.2  -0.8  749  273           
06 22.06.18 220 (ЮЗ) 20000 м  слаб. ливневой дождь  10/8 600 м кучево-дожд., верхняя 
[Cb cap|Ci fib]
+24.3 +14.1 53 +32  1000.8  -1.4  748  274           
12 22.06.18 170 (Ю) 20000 м  {ливн. осадки}  8/4 1000 м средняя 
[Sc diur, vesp|Ac trans]
+21.6 +10.2 48 +23  999.2  -0.1  746  277           
15 22.06.18 180 (Ю) 20000 м    10/10 1000 м 
[Sc]
+20.2 +11.2 56 +23  998.9  -0.2  746  278           
18 22.06.18 180 (Ю) 20000 м    10/10 1000 м 
[Sc]
+18 +13.1 73 +24  998.2  -0.7  746  279           
21 22.06.18 170 (Ю) 20000 м  в посл. час ливневой дождь  10/8 600 м кучево-дожд., верхняя 
[Cb cap|Ci fib]
+17.1 +14.6 85 +26  999  0.8  746  280  +17    0.5    влажная 
03 23.06.18 180 (Ю) 20000 м    10/4 600 м кучево-дожд., средняя, верхняя 
[Cb cap|Ac trans|Ci fib]
+24.5 +17 63 +37  997.6  -1  745  272           
06 23.06.18 300 (СЗ) 20000 м    10/5 600 м кучево-дожд., верхняя 
[Cb cap|Ci fib]
+28.9 +18.7 54 +45  995.8  -1.7  744  267           
12 23.06.18 040 (СВ) 20000 м  {гроза, ливн. осадки}  3/3 600 м 
[Cu med, cong]
+18.3 +14.1 76 +26  1000.2  2.5  747  279           
15 23.06.18 290 (З) 20000 м    ясно 
+14.4 +13.4 94 +22  1001.8  1.5  748  284           
18 23.06.18 040 (СВ) 20000 м    ясно 
+12.9 +12.2 96 +17  1003.1  1.3  749  286           
00 24.06.18 040 (СВ) 20000 м    10/10 600 м кучево-дожд. 
[Cb cap]
+17.4 +13.3 77 +25  1005.2  0.9  751  282           
03 24.06.18 030 (СВ) 20000 м    10/4 600 м кучево-дожд., средняя, верхняя 
[Cb cap|Ac trans|Ci fib]
+20.9 +14.4 66 +29  1005.4  0.2  751  278           
06 24.06.18 020 (С) 20000 м    10/4 600 м средняя 
[Sc diur, vesp|Ac trans]
+21 +13.5 62 +27  1005.9  0.6  751  278           
12 24.06.18 030 (СВ) 20000 м    6/3 600 м средняя 
[Sc diur, vesp|Ac trans]
+15.5 +11.5 77 +20  1009  2.1  754  285           
15 24.06.18 360 (С) 20000 м    3/0 верхняя 
[Ci fib]
+13.6 +12.1 91 +19  1010.4  1.4  755  287           
18 24.06.18 120 (ЮВ) 20000 м    3/0 верхняя 
[Ci fib]
+11.2 +10.6 96 +14  1011.1  0.7  755  290           
Время (UTC), дата Ветер
(°,м/с) 
Видим.   Явления Облачность Т
(°С)
Тd
(°С)
f(%) Тe
(°С)
Pmin
(гПа)
dP
(гПа)
Po
(мм)
O2
(г/м3)
Тmin Tmax R s Состояние
почвы

Для получения пояснительной информации подведите курсор к названию столбца.

ПОГОДА в Покровке - архив

Всё, что Вы хотите узнать о погоде в Покровке - удобно и подробно!

Выберите нужную дату (начиная с 1 января 2015* года) и нажмите кнопку "Найти".
Будут отображены архивные сводки погоды по пункту Покровка, начиная с указанной даты.


Отображать данные в формате CSV (для использования в таблицах Excel)


Внимание! Наш архив погоды предназначен исключительно для личного некоммерческого использования в познавательных целях. Если Вам необходимы официальные справки о состоянии погоды (для производственных, юридических, коммерческих и т.п. целей), обращайтесь в органы Росгидромета.

*Примечание: данная дата относится к архиву по метеостанциям СССР (Россия, СНГ, Балтия).
Архив по метеостанциям Зарубежной Европы и Азии (кроме Китая) хранится 10 дней, по другим регионам земного шара (Китай, Африка, Америка, Австралия, Океания) - 1 день.

Покровка - район местоположения метеостанции


Название, широта, долгота, высота метеостанции:
Покровка 43.9°ш. 131.7°д. 61 м над ур. моря [Российская Федерация]

Дополнительная информация

В oтличие oт бoльшинства пoгoдных сайтoв мы публикуем пoдрoбную метеoинфoрмацию в детальнoм прoфессиoнальнoм фoрмате.

Характеристики температуры и влажнoсти вoздуха измеряются на высoте 2 м в тени вдали oт зданий и деревьев.
Скoрoсть ветра измеряется на высoте 10 м (на урoвне рoста челoвека скoрoсть ветра ниже в 1.5-2 раза). Если метеoстанция нахoдится в гoрoде или в лесу, тo скoрoсть ветра занижена на 2-4 м/с пo сравнению с oткрытым местoм. Скoрoсть ветра над акватoриями крупных рек и oзёр, а также на вершинах хoлмoв на 2-5 м/с выше, чем в oбычных услoвиях.
Атмoсфернoе давление в разных тoчках местнoсти мoжет значительнo oтличаться oт давления на метеoстанции, в зависимoсти oт услoвий рельефа (при пoдъёме на 10 м давление пoнижается примернo на 1 мм рт.ст.).